CZ-6A DEB, 61382

Orbit data source: Space-Track

CZ-6A DEB, 61382 is space debris in LEO originally from a launch on Tue, 06 Aug 2024 UTC launched from the Taiyaun Space Center, China (TSC). Debris objects in space refer to the collection of defunct objects orbiting the Earth. Examples of debris include non-operational satellites, rocket bodies, and fragments generated from explosions, collisions, or faulty payload assembly.

Loading next visibility...
Identifier
61382, 2024-140WX
Orbit
LEO
Country
Flag of CNCN / PRC
Related business
Manufacturer
SAST
Mission
Spacecraft
Bus & Motor
Unknown
Mass
Unknown
Launch date (UTC)
2024-08-06 (2 years ago)
Launch vehicle
Unknown
Launch site
Taiyaun Space Center, China (TSC)
Object type
Payload
Rocket body
Debris
Shape & HBR
Unknown shape, 0.1 m
Radar Cross Section
Small (<0.1 m²)

Expand to show TLE details & history
Last TLE update: 14 hours ago

TLE from 14 hours ago
0 CZ-6A DEB
1 61382U 24140WX  26118.36794036  .00003148  00000-0  76254-3 0  9990
2 61382  88.9415 272.7214 0086178 111.9363 249.1032 14.50514753 86859
Epoch: 2026-04-28T08:49Z
TLE epoch observation values (Epoch: 2026-04-28T08:49:50.047Z)
Latitude
-0.00003°
Longitude
-76.08139°
Altitude
749.359 km
Speed
7.468 km/s
True Right ascension
18h 10m 53s
True Declination
0° 00' 00"
Sunlit
Object was in full shadow at epoch
Visualization orbit readout
Latitude
Unknown
Longitude
Unknown
Altitude
Unknown
Speed
Unknown
Apparent Right ascension
Unknown
Apparent Declination
Unknown
Sunlit
N/A
Visualization observer readout
Local Sidereal Time
06:29:34
Azimuth
Unknown
Elevation
Unknown
Doppler factor
Unknown
Orbital elements
Apogee altitude
782.053 km
Perigee altitude
659.697 km
Semi-major axis
7,099.012 km
Eccentricity
0.00862
Inclination
88.9415°
RAAN
272.7214°
Arg. of periapsis
111.9363°
True anomaly
248.1842°
Mean anomaly
249.1032°
Eccentric anomaly
248.64334°
Mean motion
3.62866 °/min
Orbital period
99.21 mins
BSTAR
0.00076254
Loading maneuver chart data...
Computing Atmospheric mass density...
Loading historical data...
Loading historical data...
Loading historical data...
Loading historical data...
Loading historical data...
Loading historical data...
Loading historical data...

Documentation

Showing up to 5 results
|